Location: Boissi�res
(45.2500°N, 2.3667°E)
Time: 11:37:14
(UTC+00:00)

CZ-4B R/B - Pass Details

Date: 03 March 2021
Orbit: 388 x 454 km, 97.6° (Epoch: 18 April)

Event Time Altitude Azimuth Distance (km) Brightness Sun altitude
Rises 18:36:50 0° 3° (N) 2,293 5.0 -10.7°
Reaches altitude 10° 18:38:55 10° 353° (N) 1,435 4.1 -11.1°
Maximum altitude 18:41:40 31° 289° (WNW) 723 3.2 -11.5°
Drops below altitude 10° 18:44:25 10° 225° (SW) 1,440 4.6 -12.0°
Sets 18:46:31 0° 214° (SW) 2,302 5.5 -12.4°
